TimeEDT,TemperatureF,Dew PointF,Humidity,Sea Level PressureIn,VisibilityMPH,Wind Direction,Wind SpeedMPH,Gust SpeedMPH,PrecipitationIn,Events,Conditions,WindDirDegrees,DateUTC
12:53 AM,21.0,10.9,65,30.07,10.0,SSW,5.8,-,N/A,,Clear,200,2014-03-25 04:53:00
1:53 AM,21.0,12.0,68,30.04,10.0,South,5.8,-,N/A,,Partly Cloudy,190,2014-03-25 05:53:00
2:53 AM,21.9,10.0,60,30.01,10.0,SSW,9.2,-,N/A,,Partly Cloudy,210,2014-03-25 06:53:00
3:53 AM,24.1,8.1,51,29.97,10.0,SSW,15.0,23.0,N/A,,Overcast,210,2014-03-25 07:53:00
4:53 AM,24.1,9.0,53,29.94,10.0,SSW,8.1,-,N/A,,Mostly Cloudy,210,2014-03-25 08:53:00
5:53 AM,25.0,10.0,53,29.92,10.0,SW,9.2,-,N/A,,Overcast,220,2014-03-25 09:53:00
6:53 AM,24.1,18.0,77,29.93,5.0,WSW,11.5,-,0.00,Snow,Light Snow,250,2014-03-25 10:53:00
7:44 AM,25.0,19.0,78,29.89,2.5,WSW,10.4,-,0.00,Snow,Light Snow,250,2014-03-25 11:44:00
7:45 AM,25.0,19.0,78,29.89,2.0,WSW,10.4,-,0.00,Snow,Light Snow,250,2014-03-25 11:45:00
7:53 AM,25.0,19.9,81,29.93,1.2,WSW,10.4,-,0.00,Snow,Light Snow,250,2014-03-25 11:53:00
8:03 AM,25.0,19.9,81,29.90,1.0,West,10.4,-,0.00,Snow,Light Snow,260,2014-03-25 12:03:00
8:28 AM,26.1,21.0,81,29.90,2.0,West,11.5,-,0.00,Snow,Light Snow,260,2014-03-25 12:28:00
8:37 AM,26.1,21.0,81,29.90,4.0,West,13.8,-,0.00,,Haze,280,2014-03-25 12:37:00
8:53 AM,26.1,19.9,78,29.94,6.0,West,13.8,-,0.00,,Haze,280,2014-03-25 12:53:00
9:01 AM,26.1,19.9,78,29.90,4.0,West,11.5,-,N/A,,Haze,280,2014-03-25 13:01:00
9:09 AM,26.1,19.9,78,29.90,4.0,WNW,16.1,-,N/A,,Haze,290,2014-03-25 13:09:00
9:53 AM,27.0,18.0,69,29.94,10.0,WNW,13.8,-,N/A,,Overcast,290,2014-03-25 13:53:00
10:27 AM,27.0,18.0,69,29.91,10.0,WNW,13.8,-,N/A,,Mostly Cloudy,300,2014-03-25 14:27:00
10:53 AM,28.0,16.0,61,29.95,10.0,NW,16.1,-,N/A,,Overcast,310,2014-03-25 14:53:00
11:05 AM,28.9,17.1,61,29.92,8.0,West,17.3,-,N/A,,Overcast,270,2014-03-25 15:05:00
11:30 AM,27.0,18.0,69,29.93,5.0,NNW,13.8,-,0.00,Snow,Light Snow,340,2014-03-25 15:30:00
11:34 AM,27.0,18.0,69,29.93,2.5,NW,12.7,-,0.00,Snow,Light Snow,320,2014-03-25 15:34:00
11:43 AM,28.0,19.0,69,29.93,2.5,NW,13.8,-,0.00,Snow,Light Snow,320,2014-03-25 15:43:00
11:53 AM,28.9,19.9,69,29.96,4.0,WNW,9.2,-,0.00,Snow,Light Snow,300,2014-03-25 15:53:00
12:43 PM,28.0,15.1,58,29.93,3.0,West,20.7,28.8,0.00,Snow,Light Snow,280,2014-03-25 16:43:00
12:53 PM,30.0,16.0,56,29.97,7.0,West,12.7,-,0.00,Snow,Light Snow,280,2014-03-25 16:53:00
1:53 PM,27.0,18.0,69,29.99,2.0,WNW,16.1,34.5,0.00,Snow,Light Snow,300,2014-03-25 17:53:00
1:56 PM,28.0,19.0,69,29.94,3.0,WNW,15.0,-,N/A,Snow,Light Snow,300,2014-03-25 17:56:00
2:03 PM,30.0,16.0,56,29.94,3.0,NW,13.8,21.9,0.00,Snow,Light Snow,310,2014-03-25 18:03:00
2:27 PM,30.0,17.1,59,29.94,1.8,WNW,12.7,24.2,0.00,Snow,Light Snow,290,2014-03-25 18:27:00
2:40 PM,28.9,16.0,58,29.94,10.0,NW,23.0,28.8,0.00,Snow,Light Snow,310,2014-03-25 18:40:00
2:53 PM,30.9,17.1,57,29.97,10.0,WNW,18.4,28.8,0.00,,Mostly Cloudy,300,2014-03-25 18:53:00
3:53 PM,30.9,12.9,47,29.96,10.0,WNW,23.0,28.8,N/A,,Scattered Clouds,300,2014-03-25 19:53:00
4:53 PM,28.0,10.0,47,29.99,10.0,WNW,20.7,25.3,N/A,,Overcast,300,2014-03-25 20:53:00
5:53 PM,27.0,10.9,51,30.01,10.0,WNW,15.0,26.5,0.00,,Mostly Cloudy,290,2014-03-25 21:53:00
6:53 PM,25.0,8.1,49,30.04,10.0,NW,12.7,-,0.00,,Scattered Clouds,310,2014-03-25 22:53:00
7:53 PM,24.1,8.1,51,30.07,10.0,NW,12.7,-,N/A,,Overcast,310,2014-03-25 23:53:00
8:53 PM,21.9,8.1,55,30.11,10.0,NNW,16.1,-,N/A,,Overcast,330,2014-03-26 00:53:00
9:53 PM,21.0,3.9,48,30.14,10.0,NNW,16.1,-,N/A,,Overcast,330,2014-03-26 01:53:00
10:53 PM,19.0,1.9,47,30.17,10.0,NNW,13.8,-,N/A,,Partly Cloudy,330,2014-03-26 02:53:00
11:53 PM,17.1,3.9,56,30.19,10.0,NW,9.2,-,N/A,,Clear,320,2014-03-26 03:53:00